User: anonymous   Login
Location: Home
(42.5358°N, 72.7383°W)
Time: 08:40:10
(UTC-05:00)
Language:

A-11 Canister half - Orbit

View from above orbital plane
View from above orbital plane
View from above satellite
View from above satellite

Ground track
Ground track

The orbit data is extracted from the following two-line orbital elements,

1 00051U 60009C   21342.80551435 -.00000114  00000-0 -28809-3 0  9992
2 00051  47.2116 118.7998 0104903 326.6808  32.7409 12.18272868729842
Epoch (UTC): 08 December 2021 19:19:56
Eccentricity: 0.0104903
inclination: 47.2116°
perigee height: 1516 km
apogee height: 1684 km
right ascension of ascending node: 118.7998°
argument of perigee: 326.6808°
revolutions per day: 12.18272868
mean anomaly at epoch: 32.7409°
orbit number at epoch: 72984

The dashed part of the orbit path shows where the satellite is in the earth's shadow,  

DLR